User: anonymous   Login
Location: ????????
(37.9452°N, 23.1472°E)
Time: 09:50:34
(UTC+00:00)
Language:

Terra - Orbit

View from above orbital plane
View from above orbital plane
View from above satellite
View from above satellite

Ground track
Ground track

The orbit data is extracted from the following two-line orbital elements,

1 25994U 99068A   24170.18761264  .00000668  00000-0  14919-3 0  9997
2 25994  98.0479 233.6459 0002348  38.3800  37.0442 14.59816181303313
Epoch (UTC): 18 June 2024 04:30:09
Eccentricity: 0.0002348
inclination: 98.0479°
perigee height: 692 km
apogee height: 695 km
right ascension of ascending node: 233.6459°
argument of perigee: 38.3800°
revolutions per day: 14.59816181
mean anomaly at epoch: 37.0442°
orbit number at epoch: 30331

The dashed part of the orbit path shows where the satellite is in the earth's shadow,  

DLR